Weather History for Presque Isle, ME

Change the Weather History Date:

Sunday, December 29, 2013

  Actual Average Record
Temperature  
Mean Temperature 14 °F -  
Max Temperature 21 °F 23 °F 50 °F (1982)
Min Temperature 6 °F 6 °F -22 °F (1946)
Degree Days  
Heating Degree Days 52    
Moisture  
Dew Point 2 °F    
Average Humidity 70    
Maximum Humidity 100    
Minimum Humidity 44    
Precipitation  
Precipitation 0.00 in - - ()
Sea Level Pressure  
Sea Level Pressure 29.97 in    
Wind  
Wind Speed 11 mph (NNE)    
Max Wind Speed 18 mph    
Max Gust Speed 22 mph    
Visibility 6 miles    
Events      
Averages and records for this station are not official NWS values.
T = Trace of Precipitation, MM = Missing Value Source: NWS Daily Summary

Daily Weather History Graph

Daily Weather History Graph

Search for Another Location

Airport:

Trip Planner

Search our weather history database for the weather conditions in past years. The results will help you decide how hot, cold, wet, or windy it might be!

Date:

Astronomy

Dec. 29, 2013 Rise Set
Actual Time 7:16 AM EST 3:52 PM EST
Civil Twilight 6:41 AM EST 4:27 PM EST
Nautical Twilight 6:02 AM EST 5:05 PM EST
Astronomical Twilight 5:26 AM EST 5:42 PM EST
Moon 3:50 AM EST (12/29) 1:32 PM EST (12/29)
Length of Visible Light 9h 46m
Length of Day
8h 35m
Waning Crescent, 11% of the Moon is Illuminated
Dec 29
Waning Crescent
Jan 1
New
Jan 7
First Quarter
Jan 15
Full
Jan 24
Last Quarter

Hourly Weather History & Observations

Time (EST) Temp. Windchill Dew Point Humidity Pressure Visibility Wind Dir Wind Speed Gust Speed Precip Events Conditions
12:15 AM 21.2 °F 6.8 °F 15.8 °F 80% 29.95 in 10.0 mi North 17.3 mph - N/A   Overcast
12:35 AM 21.2 °F 7.3 °F 12.2 °F 68% 29.96 in 10.0 mi North 16.1 mph 21.9 mph N/A   Overcast
12:55 AM 19.4 °F 4.1 °F 12.2 °F 74% 29.97 in 10.0 mi North 18.4 mph 21.9 mph N/A   Overcast
1:15 AM 19.4 °F 7.2 °F 10.4 °F 68% 29.97 in 10.0 mi North 11.5 mph - N/A   Overcast
1:35 AM 17.6 °F 3.2 °F 8.6 °F 68% 29.98 in 10.0 mi North 15.0 mph 20.7 mph N/A   Overcast
1:55 AM 17.6 °F 3.2 °F 6.8 °F 63% 30.00 in 10.0 mi NNW 15.0 mph - N/A   Overcast
2:15 AM 17.6 °F 6.4 °F 6.8 °F 63% 30.01 in 10.0 mi NNW 9.2 mph - N/A   Overcast
2:35 AM 17.6 °F 3.2 °F 8.6 °F 68% 30.02 in 10.0 mi North 15.0 mph - N/A   Overcast
2:55 AM 17.6 °F 6.4 °F 6.8 °F 63% 30.03 in 10.0 mi NNW 9.2 mph - N/A   Overcast
3:15 AM 15.8 °F 2.7 °F 8.6 °F 73% 30.04 in 10.0 mi NNW 11.5 mph - N/A   Overcast
3:35 AM 15.8 °F 2.1 °F 6.8 °F 68% 30.04 in 10.0 mi North 12.7 mph - N/A   Overcast
3:55 AM 15.8 °F 3.4 °F 6.8 °F 68% 30.05 in 10.0 mi North 10.4 mph - N/A   Overcast
4:15 AM 15.8 °F 2.7 °F 8.6 °F 73% 30.07 in 10.0 mi NNW 11.5 mph - N/A   Overcast
4:35 AM 15.8 °F 2.7 °F 5.0 °F 62% 30.07 in 10.0 mi North 11.5 mph - N/A   Overcast
4:55 AM 15.8 °F 4.2 °F 5.0 °F 62% 30.07 in 10.0 mi North 9.2 mph - N/A   Overcast
5:15 AM 14.0 °F 0.5 °F 6.8 °F 73% 30.07 in 10.0 mi North 11.5 mph - N/A   Overcast
5:35 AM 12.2 °F -3.7 °F 1.4 °F 62% 30.08 in 10.0 mi NNE 15.0 mph 18.4 mph N/A   Overcast
5:55 AM 12.2 °F -1.8 °F -0.4 °F 57% 30.09 in 10.0 mi NNE 11.5 mph - N/A   Overcast
6:15 AM 12.2 °F -3.1 °F 6.8 °F 79% 30.09 in 10.0 mi North 13.8 mph 17.3 mph N/A   Overcast
6:35 AM 10.4 °F -4.1 °F 5.0 °F 79% 30.10 in 10.0 mi NNE 11.5 mph - N/A   Overcast
6:55 AM 10.4 °F -4.1 °F -0.4 °F 62% 30.11 in 10.0 mi North 11.5 mph - N/A   Overcast
7:15 AM 10.4 °F -5.4 °F -5.8 °F 48% 30.12 in 10.0 mi NNE 13.8 mph 19.6 mph N/A   Overcast
7:35 AM 10.4 °F -4.1 °F -4.0 °F 52% 30.11 in 10.0 mi NNE 11.5 mph - N/A   Overcast
7:55 AM 8.6 °F -4.7 °F -0.4 °F 67% 30.12 in 10.0 mi NNE 9.2 mph - N/A   Overcast
8:15 AM 8.6 °F -4.7 °F 3.2 °F 79% 30.12 in 10.0 mi NNE 9.2 mph - N/A   Overcast
8:35 AM 8.6 °F -2.6 °F 6.8 °F 92% 30.11 in 10.0 mi NNE 6.9 mph - N/A   Overcast
8:55 AM 8.6 °F -4.7 °F 6.8 °F 92% 30.11 in 10.0 mi NE 9.2 mph - N/A   Overcast
9:15 AM 8.6 °F -3.7 °F -0.4 °F 67% 30.11 in 10.0 mi NNE 8.1 mph - N/A   Overcast
9:35 AM 8.6 °F -7.0 °F -0.4 °F 67% 30.12 in 10.0 mi NNE 12.7 mph 16.1 mph N/A   Overcast
9:55 AM 8.6 °F -3.7 °F -2.2 °F 62% 30.13 in 10.0 mi NNE 8.1 mph - N/A   Overcast
10:15 AM 8.6 °F -3.7 °F -7.6 °F 48% 30.12 in 10.0 mi NE 8.1 mph - N/A   Overcast
10:35 AM 8.6 °F -5.5 °F -7.6 °F 48% 30.11 in 10.0 mi NNE 10.4 mph - N/A   Overcast
10:55 AM 6.8 °F -6.9 °F -5.8 °F 56% 30.09 in 5.0 mi NNE 9.2 mph - N/A   Overcast
11:15 AM 6.8 °F -6.9 °F -0.4 °F 72% 30.08 in 3.0 mi NE 9.2 mph - N/A   Overcast
11:35 AM 6.8 °F -4.8 °F 6.8 °F 100% 30.07 in 1.0 mi NNE 6.9 mph - N/A   Overcast
11:55 AM 6.8 °F -4.8 °F 6.8 °F 100% 30.04 in 1.0 mi NNE 6.9 mph - N/A   Overcast
12:15 PM 6.8 °F -4.8 °F 3.2 °F 85% 30.03 in 2.5 mi NNE 6.9 mph - N/A   Overcast
12:35 PM 6.8 °F -4.8 °F -7.6 °F 52% 30.03 in 10.0 mi North 6.9 mph - N/A   Overcast
12:55 PM 6.8 °F -7.8 °F -11.2 °F 44% 30.03 in 10.0 mi North 10.4 mph - N/A   Overcast
1:15 PM 6.8 °F -4.8 °F -9.4 °F 48% 30.02 in 4.0 mi North 6.9 mph - N/A   Overcast
1:35 PM 6.8 °F -5.9 °F 3.2 °F 85% 30.02 in 2.5 mi NNE 8.1 mph - N/A   Overcast
1:55 PM 6.8 °F -4.8 °F - N/A% 30.01 in 1.8 mi NNE 6.9 mph - N/A   Overcast
2:15 PM 6.8 °F -5.9 °F 3.2 °F 85% 30.00 in 1.5 mi NNE 8.1 mph - N/A   Overcast
2:35 PM 6.8 °F -5.9 °F -9.4 °F 48% 29.98 in 1.2 mi NNE 8.1 mph - N/A   Overcast
2:55 PM 6.8 °F -5.9 °F -11.2 °F 44% 29.98 in 1.5 mi NNE 8.1 mph - N/A   Overcast
3:15 PM 6.8 °F -3.5 °F -0.4 °F 72% 29.97 in 1.5 mi NNE 5.8 mph - N/A   Overcast
3:35 PM 6.8 °F -3.5 °F 6.8 °F 100% 29.97 in 2.0 mi NE 5.8 mph - N/A   Overcast
3:55 PM 6.8 °F -2.0 °F 6.8 °F 100% 29.96 in 2.0 mi NNE 4.6 mph - N/A   Overcast
4:15 PM 6.8 °F -2.0 °F -5.8 °F 56% 29.96 in 2.0 mi NNE 4.6 mph - N/A   Overcast
4:35 PM 6.8 °F -3.5 °F -11.2 °F 44% 29.95 in 3.0 mi NNE 5.8 mph - N/A   Overcast
4:55 PM 6.8 °F -3.5 °F -2.2 °F 67% 29.93 in 3.0 mi NNE 5.8 mph - N/A   Overcast
5:15 PM 6.8 °F -2.0 °F - N/A% 29.93 in 3.0 mi NNE 4.6 mph - N/A   Overcast
5:35 PM 6.8 °F -3.5 °F 6.8 °F 100% 29.92 in 2.5 mi NNE 5.8 mph - N/A   Overcast
5:55 PM 8.6 °F 2.0 °F -7.6 °F 48% 29.92 in 3.0 mi NE 3.5 mph - N/A   Overcast
6:15 PM 8.6 °F 0.1 °F -4.0 °F 57% 29.90 in 3.0 mi NE 4.6 mph - N/A   Overcast
6:35 PM 8.6 °F 0.1 °F 8.6 °F 100% 29.88 in 3.0 mi NE 4.6 mph - N/A   Overcast
6:55 PM 8.6 °F 2.0 °F 3.2 °F 79% 29.87 in 3.0 mi NE 3.5 mph - N/A   Overcast
7:15 PM 8.6 °F 2.0 °F -9.4 °F 44% 29.87 in 3.0 mi NNE 3.5 mph - N/A   Overcast
7:35 PM 8.6 °F 0.1 °F 5.0 °F 85% 29.85 in 3.0 mi NNE 4.6 mph - N/A   Overcast
7:55 PM 8.6 °F 2.0 °F 8.6 °F 100% 29.83 in 2.0 mi NNE 3.5 mph - N/A   Overcast
8:15 PM 8.6 °F -1.3 °F -7.6 °F 48% 29.82 in 3.0 mi North 5.8 mph - N/A   Overcast
8:35 PM 8.6 °F 0.1 °F 3.2 °F 79% 29.80 in 4.0 mi NNE 4.6 mph - N/A   Overcast
8:55 PM 8.6 °F -1.3 °F 8.6 °F 100% 29.79 in 2.5 mi NNE 5.8 mph - N/A   Overcast
9:15 PM 10.4 °F 2.2 °F -5.8 °F 48% 29.77 in 2.0 mi NNE 4.6 mph - N/A   Overcast
9:35 PM 10.4 °F 4.0 °F 8.6 °F 92% 29.75 in 2.0 mi NNE 3.5 mph - N/A   Overcast
9:55 PM 10.4 °F 2.2 °F 8.6 °F 92% 29.74 in 2.0 mi NNE 4.6 mph - N/A   Overcast
10:15 PM 10.4 °F 2.2 °F -5.8 °F 48% 29.72 in 1.5 mi NNE 4.6 mph - N/A   Overcast
10:35 PM 10.4 °F - 10.4 °F 100% 29.70 in 1.0 mi Calm Calm - N/A   Overcast
10:55 PM 10.4 °F 2.2 °F 1.4 °F 67% 29.69 in 1.2 mi NNE 4.6 mph - N/A   Overcast
11:15 PM 10.4 °F 2.2 °F -0.4 °F 62% 29.67 in 1.0 mi North 4.6 mph - N/A   Overcast
11:35 PM 10.4 °F 4.0 °F 10.4 °F 100% 29.66 in 1.5 mi North 3.5 mph - N/A   Overcast
11:55 PM 10.4 °F 4.0 °F -4.0 °F 52% 29.65 in 1.2 mi North 3.5 mph - N/A   Overcast